Simultaneous Nadir Overpasses (SNOs) Predictions

Prediction of SNOs between METOP-B and NOAA-19 Satellite Orbit:

Table of predicted SNOs for the next 14.0 days since TLE Epoch: 6/24/2023
Index Date (METOP-B) Time (METOP-B) Lat,Lon (METOP-B) SZA (METOP-B ) Date (NOAA-19) Time (NOAA-19) Lat,Lon (NOAA-19) SZA (NOAA-19 ) Distance(km) Time Diff (sec)
1 06/24/2023 08:28:41 80.91, 86.83 59.07 06/24/2023 08:27:30 80.91, 86.91 59.05 1.47 71
2 06/24/2023 09:19:22 -80.91,-105.82 120.93 06/24/2023 09:18:26 -80.91,-105.99 120.97 3.09 56
3 06/24/2023 10:10:03 80.90, 61.33 59.05 06/24/2023 10:09:29 80.91, 61.44 59.05 2.04 34
4 06/24/2023 11:00:43 -80.92,-130.96 120.90 06/24/2023 11:00:24 -80.91,-131.10 120.93 2.64 19
5 06/24/2023 11:51:24 80.91, 36.18 59.08 06/24/2023 11:51:27 80.92, 36.33 59.09 2.65 3
6 06/24/2023 12:42:05 -80.91,-156.46 120.92 06/24/2023 12:42:23 -80.91,-156.58 120.93 2.00 18
7 06/24/2023 13:32:45 80.92, 11.04 59.10 06/24/2023 13:33:26 80.92, 10.86 59.10 3.31 41
8 06/24/2023 14:23:26 -80.92, 178.39 120.90 06/24/2023 14:24:21 -80.92, 178.31 120.89 1.53 55
9 07/05/2023 20:40:48 -80.89, 83.42 120.37 07/05/2023 20:39:44 -80.90, 83.46 120.39 0.89 64
10 07/05/2023 21:31:28 80.90,-109.17 59.64 07/05/2023 21:30:48 80.90,-109.10 59.64 1.35 40
11 07/05/2023 22:22:09 -80.90, 58.26 120.34 07/05/2023 22:21:42 -80.90, 58.34 120.34 1.34 27
12 07/05/2023 23:12:49 80.91,-134.33 59.68 07/05/2023 23:12:46 80.91,-134.22 59.69 1.92 3
13 07/06/2023 00:03:29 -80.91, 33.11 120.31 07/06/2023 00:03:39 -80.91, 33.22 120.30 1.97 10
14 07/06/2023 00:54:10 80.90,-159.84 59.66 07/06/2023 00:54:44 80.91,-159.71 59.69 2.51 34
15 07/06/2023 01:44:51 -80.90, 7.60 120.33 07/06/2023 01:45:38 -80.91, 7.73 120.29 2.38 47



Historial Predications of SNOs between METOP-B and NOAA-19
